Orbital Elements at Epoch 2459200.5 (2020-Dec-17.0) TDB
Reference: JPL 20 (heliocentric ecliptic J2000)
Element | Value | Uncertainty (1-sigma) | Units |
e | .1853031481275287 | 3.2602e-08 | |
a | 2.390510116821122 | 9.6989e-09 | au |
q | 1.947541066543462 | 8.0423e-08 | au |
i | 5.008540556316565 | 3.7068e-06 | deg |
node | 85.77608939808432 | 4.8369e-05 | deg |
peri | 209.5967625724345 | 4.9734e-05 | deg |
M | 359.5856284414223 | 1.2147e-05 | deg |
tp | 2459202.053895267396 (2020-Dec-18.55389527) | 4.5555e-05 | TDB |
period | 1350.001670439748 3.70 | 8.216e-06 2.249e-08 | d yr |
n | .2666663367036679 | 1.6229e-09 | deg/d |
Q | 2.833479167098783 | 1.1496e-08 | au |
|
| | Orbit Determination Parameters
Additional Information
|